Wind_Speed
16 16 17 17 14 10 4 2 1 0 1 2 1 1 2 2 1 1 1 1 0 1 0 1 4 5 3 1 5 4 3 6 4 4 2 3 2 19 26 27 33 34 34 32 28 27 24 23 20 18 16 15 14 12 12 12 13 14 15 15 14 13 13 13 13 12 12 11 10 10 10 10 10 10 9 9 9 8 8 8 8 8 7 7 7 8 7 7 7 7 7 7 7 7 7 7 8
18 19 17 17 12 7 1 2 2 1 1 3 2 2 2 1 2 3 5 3 1 1 1 2 2 1 2 2 3 3 2 1 1 3 0 3 11 18 21 28 34 34 34 31 29 27 23 23 20 18 16 15 13 12 13 14 15 15 15 14 13 13 12 12 12 12 11 10 10 10 10 10 9 9 9 9 9 9 8 8 8 7 7 7 7 7 7 7 7 7 6 6 7 7 8 8 7
18 19 19 15 6 2 1 2 1 1 1 3 3 3 2 2 4 4 4 3 1 2 2 3 2 1 1 1 2 2 3 0 3 4 3 9 13 15 21 29 34 34 34 31 30 26 24 23 20 18 16 14 13 13 15 16 15 14 13 13 13 12 12 12 12 11 11 10 10 10 9 9 9 8 8 8 8 8 8 8 7 7 7 7 6 6 6 7 6 6 6 6 7 7 7 7 7
17 18 20 12 2 1 2 2 0 1 2 3 2 3 3 3 2 3 1 1 2 3 2 2 2 1 0 2 1 1 2 1 4 5 5 11 13 19 25 29 33 32 31 31 30 27 25 23 20 19 16 15 14 16 16 15 14 13 13 13 13 12 12 11 11 11 10 10 10 9 9 8 8 7 7 7 7 7 7 7 7 7 6 6 6 6 6 6 6 6 6 6 6 6 6 6 6
16 18 16 5 0 1 2 1 2 2 4 3 2 3 2 2 2 3 1 2 1 3 2 2 1 1 1 2 1 1 2 1 4 6 8 12 17 25 28 30 33 31 30 31 30 26 24 23 20 18 16 16 17 16 15 14 14 13 13 13 13 12 11 11 10 10 10 10 10 9 8 8 7 7 6 6 6 6 6 6 6 6 6 6 6 6 6 6 6 6 6 6 6 6 6 6 6
17 17 10 0 1 1 1 3 3 4 4 3 2 2 2 2 2 2 2 1 1 1 1 3 1 1 1 1 2 1 3 3 5 8 12 18 22 28 30 32 32 30 30 29 29 26 24 22 20 18 17 18 17 15 14 14 14 13 13 13 13 12 11 10 10 10 10 10 10 9 9 8 7 7 6 5 5 5 5 4 5 5 5 5 5 5 5 5 5 5 5 5 5 5 5 4 5
17 10 3 0 1 0 2 3 4 4 4 3 3 3 3 2 2 1 2 0 1 2 1 2 2 2 1 1 2 2 2 5 7 10 17 24 28 30 31 32 31 30 29 29 28 26 24 22 19 19 19 19 16 15 15 14 14 13 12 12 11 11 10 9 9 9 10 10 9 9 8 8 7 7 6 5 5 5 5 4 4 5 5 5 5 5 5 5 5 5 5 5 4 4 4 4 5
15 5 0 1 1 2 3 4 4 3 3 4 3 3 4 4 3 1 2 2 1 2 2 2 2 1 1 1 1 4 6 7 11 15 22 29 32 32 32 32 31 29 28 29 27 25 23 21 20 20 20 17 15 15 15 14 14 13 12 12 11 10 10 9 9 9 9 9 9 8 8 8 7 7 7 6 6 5 5 5 5 5 5 5 5 5 5 5 5 5 4 5 5 5 5 5 5
8 1 0 1 2 2 3 3 4 3 3 4 3 3 5 4 4 3 3 3 1 2 4 4 2 1 1 3 2 2 6 12 17 21 26 31 32 32 31 31 31 30 28 29 26 24 23 21 22 20 18 16 15 15 15 15 13 13 13 11 11 10 10 9 9 9 9 8 8 8 8 8 7 7 6 6 6 5 5 6 5 5 5 5 5 5 5 5 4 4 5 5 5 6 6 6 6
3 1 1 1 2 2 4 3 3 3 3 4 5 5 5 5 5 5 4 3 3 3 3 5 2 1 0 3 2 1 6 17 23 24 28 31 31 31 30 30 30 30 29 29 27 25 23 23 22 19 18 16 15 16 15 14 13 13 12 11 11 11 10 10 9 9 9 8 8 8 7 7 7 7 5 5 6 6 6 6 5 5 5 5 5 5 5 5 5 5 5 5 6 7 7 7 7
1 1 1 1 2 3 5 4 4 3 2 2 3 5 5 6 4 4 4 3 4 4 4 4 2 1 2 2 1 3 9 18 25 27 28 29 29 29 28 28 28 29 30 29 27 26 24 23 21 18 17 16 15 15 15 14 13 13 12 12 11 11 10 9 9 9 9 8 7 7 7 6 6 7 7 7 7 7 7 6 6 6 6 6 6 6 6 6 6 5 5 6 6 7 7 7 7
1 2 1 2 2 2 3 3 6 5 3 2 3 4 3 5 4 4 6 5 6 6 4 4 3 3 2 2 2 6 10 13 22 28 29 29 28 27 26 26 26 28 29 29 28 25 23 22 20 17 16 16 15 15 15 14 14 13 12 12 11 11 10 10 9 9 8 7 7 7 7 6 6 7 8 9 9 8 8 7 7 7 7 8 8 7 7 6 6 6 6 6 7 7 7 8 8
1 2 1 2 1 1 2 3 4 5 4 3 3 4 3 4 6 5 6 6 7 6 5 4 0 3 3 2 4 6 8 10 19 27 29 28 26 25 24 24 25 27 28 29 28 24 22 21 19 17 17 16 15 15 15 14 14 13 13 12 11 11 10 10 9 9 8 7 7 8 8 7 8 8 7 9 9 9 8 9 9 9 9 9 9 9 8 8 7 7 7 8 8 8 8 9 9
2 2 2 1 0 1 2 3 3 4 4 2 1 3 4 3 3 3 6 7 7 4 3 4 0 3 2 2 4 4 7 13 20 25 27 26 24 23 22 23 24 26 28 28 27 23 21 21 20 18 18 17 16 16 15 15 14 14 13 12 11 11 10 10 10 8 7 7 8 8 9 8 8 8 7 8 8 8 9 9 10 10 10 10 10 10 10 10 9 8 8 8 9 9 9 10 10
2 1 1 2 1 1 2 3 3 4 4 2 1 4 5 2 1 3 5 6 5 2 3 3 1 1 3 4 4 5 11 17 21 24 25 23 21 21 20 21 22 24 27 27 25 23 21 21 20 19 18 18 17 16 16 15 15 14 13 12 11 11 10 10 9 8 7 8 9 9 9 8 7 7 7 7 7 8 9 9 10 10 11 11 11 11 11 11 10 9 9 9 9 10 11 11 11
1 1 1 1 2 2 2 3 3 4 3 1 2 3 5 3 2 3 3 2 3 3 2 2 1 1 4 4 6 12 18 20 22 23 23 21 19 18 18 19 20 22 24 25 24 23 21 21 20 19 19 19 18 18 17 16 15 14 13 12 11 11 10 10 9 8 9 9 9 8 7 6 6 7 7 8 8 9 9 10 10 11 12 12 12 12 12 11 10 10 9 10 10 11 11 12 12
0 1 0 1 2 2 2 3 3 2 3 1 3 4 5 3 4 3 2 2 4 4 2 1 1 1 3 6 14 21 22 22 23 23 21 20 18 17 16 17 18 19 21 22 23 22 21 20 20 20 19 19 18 18 18 17 16 14 13 13 12 11 10 9 9 8 9 9 8 7 6 6 7 8 9 9 10 10 10 10 11 11 12 13 13 13 13 12 11 10 10 10 11 11 12 12 12
0 1 1 2 2 2 2 3 2 2 3 2 4 5 4 4 5 3 2 4 4 4 2 2 3 3 8 14 22 25 24 23 23 22 19 17 17 16 15 17 18 19 21 21 22 22 22 21 20 21 20 19 19 19 19 18 17 15 14 14 12 11 10 9 9 9 10 11 10 9 8 9 9 9 9 10 10 11 10 10 11 11 12 12 13 13 14 13 12 11 11 11 11 12 12 13 13
1 1 1 2 2 2 2 3 3 4 5 1 3 4 3 3 5 3 3 5 5 6 2 1 4 8 13 17 22 24 23 23 22 21 19 17 17 16 16 17 18 19 21 22 22 22 22 22 21 22 21 20 20 20 19 19 18 16 15 14 13 12 12 11 11 11 13 14 12 10 10 10 11 11 11 10 10 10 11 11 10 11 11 12 12 13 13 13 13 12 12 12 12 12 13 14 14
2 1 2 1 3 4 2 3 5 5 5 2 2 5 5 3 3 1 4 7 6 7 5 2 4 10 14 15 18 21 22 21 21 21 19 18 18 18 18 18 20 21 23 24 23 22 23 23 22 22 22 22 21 21 20 19 18 17 15 15 14 12 12 13 13 13 14 14 12 10 11 12 12 12 12 11 10 10 11 11 11 11 11 11 12 13 13 12 12 12 12 12 12 13 13 14 14
1 2 1 1 2 4 2 2 5 4 4 4 3 6 6 3 1 1 6 8 5 6 4 2 6 12 15 14 16 18 19 19 19 19 18 18 18 18 19 21 22 22 23 22 23 23 24 25 24 24 23 23 23 22 21 20 19 17 16 15 14 13 13 14 14 14 15 14 11 10 11 12 12 12 12 12 11 11 12 11 11 11 11 12 11 12 12 12 12 12 12 12 12 13 13 14 14
1 4 3 2 3 4 1 3 4 1 1 3 1 4 5 2 1 1 6 6 4 5 4 3 7 13 16 15 15 15 16 16 16 17 17 18 19 18 18 19 18 18 20 22 24 24 24 25 25 24 23 23 23 23 22 21 20 18 17 17 16 15 15 15 15 16 15 13 11 10 11 12 12 12 12 12 11 11 11 11 11 10 11 11 10 11 12 11 12 11 12 12 12 13 14 14 15
2 3 3 1 3 3 0 1 2 1 2 2 2 1 2 3 3 2 3 3 3 4 4 5 8 13 17 16 15 14 14 14 14 16 18 19 19 19 18 19 19 20 21 23 24 24 24 25 25 25 24 24 24 24 23 22 22 20 20 18 17 17 17 17 16 16 15 13 12 11 12 12 13 13 13 12 11 11 11 11 10 10 11 10 10 11 12 11 12 12 13 13 13 14 15 16 16
3 3 3 1 1 1 0 1 2 3 5 3 2 2 2 4 3 1 1 3 2 2 3 6 9 13 16 16 14 15 15 14 15 18 20 20 22 22 21 21 22 22 22 22 23 24 24 25 25 26 25 25 25 25 24 24 23 22 22 21 19 18 18 18 17 15 14 13 13 13 13 13 13 13 13 12 11 11 11 10 10 11 11 11 11 12 13 12 13 13 15 15 16 16 17 18 18
6 4 1 1 2 1 1 2 4 4 5 2 2 3 4 3 2 0 2 4 3 2 4 7 11 12 13 15 15 13 14 14 15 18 18 18 20 21 21 21 21 21 23 24 24 24 25 25 25 26 26 26 26 26 26 25 24 23 23 22 20 18 18 18 16 16 15 14 14 14 14 14 14 13 13 11 11 11 10 10 11 11 12 12 13 13 13 14 14 15 16 17 18 18 18 18 18
6 4 2 2 2 0 1 3 5 3 3 0 1 5 2 1 1 1 2 4 3 2 5 7 12 14 11 13 14 13 13 13 14 16 17 17 16 17 19 20 21 23 25 24 24 25 25 25 26 27 28 27 27 27 27 27 25 24 23 22 21 19 18 17 17 16 15 15 15 15 16 15 14 13 13 11 11 11 10 10 11 12 12 13 14 14 14 15 15 15 16 18 19 19 18 16 16
4 4 4 4 2 1 1 3 4 2 4 2 2 5 1 3 2 1 2 5 3 3 5 7 11 14 12 11 11 12 12 14 16 17 15 14 14 16 18 20 22 24 24 24 25 26 26 26 27 28 28 28 28 28 29 27 26 25 23 21 21 20 18 17 17 17 16 16 16 16 17 17 15 15 14 13 13 13 12 12 12 13 13 13 14 15 15 15 16 16 17 18 18 17 16 15 15
6 5 3 4 3 1 0 4 3 1 5 2 1 4 2 3 2 2 3 5 3 5 6 8 11 13 13 11 11 9 9 14 18 16 14 14 16 17 18 22 24 23 24 26 27 26 26 27 28 28 28 28 28 29 29 27 26 24 22 22 21 20 19 19 18 17 17 17 17 17 18 18 17 16 15 14 14 14 14 14 14 15 15 15 15 17 16 17 17 17 16 15 16 15 15 14 15
5 4 1 1 5 2 3 2 2 1 3 2 2 2 1 2 3 5 3 3 4 6 7 8 10 12 12 11 10 8 9 13 15 15 17 19 20 21 22 25 26 25 26 28 27 26 26 27 28 28 28 28 28 29 28 27 25 23 22 21 20 19 19 19 19 18 16 16 16 17 18 18 18 18 17 16 16 15 15 16 16 16 16 16 17 17 18 18 18 16 14 13 14 14 15 15 14
3 2 1 1 2 1 4 1 3 1 2 1 1 1 2 4 6 7 3 3 5 7 8 8 8 10 11 10 9 9 9 11 13 16 20 21 21 23 25 26 27 28 27 26 25 26 27 27 27 27 27 28 28 28 27 26 24 22 21 19 18 18 19 19 19 17 16 15 15 15 16 17 18 19 18 18 18 18 18 18 18 17 15 15 16 17 18 19 18 15 13 14 14 14 15 15 14
1 0 1 1 2 0 2 2 5 2 2 1 1 0 2 4 7 8 4 4 7 8 8 8 8 9 10 9 10 9 9 12 17 20 22 23 23 25 26 26 27 27 26 26 27 27 27 26 26 26 26 27 28 27 26 25 23 22 20 19 18 17 18 19 19 18 16 16 16 16 16 16 17 18 18 18 18 19 20 21 20 19 17 16 16 17 18 18 17 15 15 15 15 14 16 17 15
1 1 2 2 0 1 2 3 5 3 2 2 2 1 2 3 6 7 4 4 6 8 7 7 8 9 10 9 10 10 10 13 19 21 23 24 25 25 26 27 27 27 26 27 27 27 26 27 26 26 26 26 27 27 25 24 22 21 19 18 17 17 18 19 19 18 17 17 17 17 17 18 18 18 18 18 19 20 21 22 22 21 20 20 19 19 19 19 16 15 15 14 14 14 13 14 13
2 0 2 1 2 2 2 2 3 3 6 1 1 1 2 2 4 4 3 5 6 8 6 7 9 8 9 9 9 10 9 10 13 17 22 24 25 26 27 27 28 28 28 28 27 27 27 27 27 26 25 25 26 26 25 24 22 21 19 18 17 17 19 19 19 18 18 19 19 19 19 19 19 19 19 19 20 21 21 22 22 22 22 22 21 21 21 19 15 14 13 11 13 12 10 10 10
3 1 1 2 2 1 1 1 2 4 5 3 2 1 4 4 3 3 2 5 6 7 7 7 8 8 8 8 9 9 9 10 10 14 21 23 25 27 27 28 29 30 29 28 28 28 29 29 27 27 25 24 25 25 24 24 23 21 20 19 19 19 21 21 20 20 20 20 20 20 19 19 19 19 19 20 21 22 22 24 24 23 23 23 23 21 20 18 15 14 13 12 12 12 11 11 11
1 1 1 3 2 2 3 2 5 8 4 4 6 4 8 8 5 4 2 5 6 8 7 6 8 9 7 8 9 9 10 10 11 16 22 25 25 26 27 28 29 29 29 28 29 29 28 28 28 27 26 25 25 24 24 24 23 23 22 21 21 22 23 23 22 23 22 21 21 21 20 20 20 20 20 21 22 24 25 26 26 25 24 24 24 22 21 19 17 16 15 14 13 13 13 13 13
1 2 2 2 3 3 5 3 6 11 6 5 7 6 8 9 7 5 3 5 6 7 6 6 8 9 8 8 8 9 10 11 13 19 23 24 26 26 27 27 28 29 29 28 28 27 27 27 27 27 27 26 25 25 25 25 25 25 24 24 25 26 26 25 25 25 24 23 23 22 21 21 20 20 20 20 22 24 24 24 23 22 22 23 24 24 22 19 18 16 14 13 12 13 14 14 13
3 3 3 4 5 5 4 3 5 9 6 5 8 7 7 8 7 6 4 5 6 7 7 7 8 9 9 9 9 10 10 10 14 19 21 23 25 26 27 27 27 27 27 26 26 27 28 28 28 28 29 28 27 27 28 27 27 27 27 28 29 28 27 27 27 27 26 25 24 23 22 21 21 21 21 21 22 22 19 17 17 17 17 20 23 24 22 18 16 15 12 11 13 13 14 14 12
5 4 5 5 4 4 3 2 7 9 3 3 5 5 8 9 7 6 5 7 8 8 9 9 9 9 9 10 11 10 9 8 10 13 16 20 22 23 25 25 25 26 26 26 27 28 29 28 30 30 30 29 30 30 30 30 30 29 29 30 30 29 27 27 27 26 26 25 25 24 24 23 22 22 22 22 21 18 15 14 14 15 14 16 19 22 21 18 16 15 14 14 14 14 15 14 11
5 4 3 5 4 2 3 3 6 8 1 1 5 6 8 8 7 6 6 8 8 8 9 9 10 10 9 10 10 9 8 8 8 9 12 16 20 21 23 23 24 26 27 28 29 30 29 29 31 31 30 31 31 31 31 32 32 30 29 28 27 27 26 26 26 26 25 26 26 26 26 25 25 24 22 21 20 18 17 16 15 15 15 15 17 19 20 18 17 16 15 15 15 14 15 14 12
5 4 3 5 4 3 1 1 5 6 2 1 5 4 5 5 5 6 7 8 6 6 8 8 8 10 11 11 10 9 11 10 10 9 9 13 17 19 21 22 24 25 26 28 30 30 29 31 32 32 32 32 32 32 33 33 31 29 29 27 25 24 24 24 24 26 27 27 27 26 27 26 26 25 22 21 21 20 18 17 16 16 16 17 17 18 19 19 18 17 17 16 15 14 14 13 11
5 5 5 7 5 3 1 3 6 3 2 2 4 1 5 4 5 6 5 5 5 5 7 7 7 8 9 9 9 9 11 10 10 9 8 9 13 18 22 24 25 24 25 28 31 31 31 33 34 33 34 33 33 34 34 32 29 28 26 25 23 21 22 22 22 25 27 27 28 27 27 26 26 24 22 22 22 21 19 17 16 15 16 17 17 18 19 19 19 19 18 18 17 15 15 13 11
6 5 9 12 8 3 7 9 7 2 2 3 4 2 5 4 5 7 4 5 8 6 7 10 9 8 7 8 9 9 9 9 10 9 8 8 11 16 21 23 25 25 27 30 32 33 33 34 34 34 34 35 35 34 33 31 30 29 26 25 24 22 21 23 26 28 28 27 27 27 26 25 24 23 23 23 22 21 19 18 16 16 16 16 17 17 18 19 19 19 18 19 18 16 15 13 13
5 5 8 8 5 7 10 10 5 2 2 4 5 4 3 4 4 7 5 6 10 7 8 11 10 9 9 8 8 8 8 8 8 8 8 8 11 13 16 22 26 27 30 32 32 33 34 34 33 33 35 36 36 35 32 31 31 31 30 30 29 27 25 28 31 31 28 27 25 25 26 25 24 23 23 23 22 21 20 19 17 17 17 16 16 17 18 19 19 19 19 18 18 17 15 14 16
5 5 3 3 6 9 11 9 3 3 2 0 3 4 1 4 5 5 7 7 9 9 10 11 10 11 10 10 9 8 9 8 8 8 8 8 11 14 17 22 27 29 32 32 31 32 33 34 34 34 35 37 37 36 34 33 33 33 33 32 31 30 30 32 32 29 28 26 25 25 25 25 25 24 23 22 21 21 20 19 18 18 18 17 16 17 18 18 19 19 19 19 19 18 17 16 17
7 4 3 1 5 7 7 6 2 1 2 2 2 5 1 5 5 1 6 7 8 11 14 13 12 12 12 11 10 9 9 9 9 9 10 9 11 16 21 24 27 30 32 32 33 33 34 34 34 33 35 36 36 36 35 35 35 35 34 33 32 33 34 34 30 27 26 25 25 25 24 24 24 22 22 21 20 19 19 19 19 18 17 16 17 18 18 18 19 19 19 20 19 19 18 17 17
5 1 6 6 5 5 4 4 2 3 2 2 5 6 2 4 5 1 4 5 10 13 13 13 13 12 12 11 11 10 9 8 9 10 10 10 14 19 22 24 27 29 31 32 34 34 34 33 32 33 35 37 36 36 36 36 36 35 34 34 34 35 35 33 29 27 26 24 24 25 25 24 23 22 21 20 20 19 19 19 19 17 16 16 17 18 18 18 18 18 19 19 19 19 18 17 18
3 3 6 6 5 5 4 2 3 3 3 3 6 10 5 2 5 3 5 5 9 12 10 11 12 12 12 11 11 11 9 8 8 9 9 11 16 19 20 21 24 27 30 31 31 32 32 32 32 34 36 38 37 37 37 37 37 36 36 36 36 37 36 31 28 28 28 26 26 27 26 25 23 22 22 21 21 20 20 19 18 17 17 18 19 19 18 17 17 18 18 19 19 18 18 18 19
3 2 3 3 4 4 4 4 4 1 4 5 3 8 7 2 5 5 7 6 5 9 11 12 13 13 12 11 11 11 10 9 9 9 9 9 11 14 16 18 20 23 25 27 28 30 31 32 33 35 37 38 38 37 37 38 37 37 37 37 38 39 37 32 30 31 31 29 29 28 27 25 24 23 22 22 21 20 20 19 18 18 19 19 20 20 19 19 18 17 17 17 18 18 18 18 19
4 3 4 3 2 3 3 2 1 2 5 4 3 6 3 5 8 7 10 10 7 9 11 13 14 14 13 12 11 10 9 9 9 9 9 9 9 9 12 16 17 18 21 24 26 28 30 32 34 35 37 38 39 38 37 38 38 38 38 38 39 39 37 34 33 33 32 31 30 29 28 27 25 24 23 23 21 19 19 19 18 19 19 19 20 20 20 20 19 18 17 18 18 18 18 18 19
4 4 4 3 2 1 2 2 1 2 5 3 5 5 2 4 7 8 12 14 12 11 11 11 12 13 13 12 11 10 9 9 9 9 9 9 9 9 11 15 17 18 20 22 25 28 30 32 33 35 36 38 38 38 37 38 38 39 39 39 39 38 35 35 35 34 34 33 31 29 28 27 26 25 24 22 20 19 19 19 18 18 18 19 19 19 20 20 20 19 18 19 19 19 19 19 20
4 3 4 4 4 3 3 3 2 3 3 3 1 3 3 3 4 7 9 11 9 10 9 7 8 9 10 10 10 10 10 10 9 9 10 9 9 10 13 16 18 19 21 23 26 28 30 31 32 34 36 36 37 37 37 37 38 39 39 38 38 37 36 35 36 36 35 33 31 29 28 27 26 25 23 21 19 19 18 17 17 18 18 18 17 17 18 20 20 20 20 21 21 21 21 21 21
3 2 4 2 5 5 2 2 4 4 1 1 1 2 4 4 5 5 3 4 6 9 8 7 6 7 7 8 9 10 10 10 9 9 9 10 10 12 14 16 19 21 22 24 26 28 30 31 32 34 35 36 36 36 36 37 38 38 37 37 37 36 35 34 34 35 35 34 31 29 28 27 25 24 22 21 20 19 17 17 17 18 19 19 18 17 17 18 19 21 22 22 23 23 23 23 22
0 2 3 2 3 6 2 1 0 2 1 2 1 3 5 3 5 6 4 2 5 7 8 9 8 8 8 8 9 10 10 10 9 9 9 9 10 12 15 17 19 22 23 25 27 29 30 31 32 33 34 34 34 34 35 35 36 36 36 36 36 35 35 34 35 36 35 33 31 29 28 27 25 23 22 20 20 18 17 16 17 18 18 18 18 18 18 18 18 20 22 24 24 23 24 24 23
5 3 5 1 3 3 3 0 3 3 1 4 1 4 5 2 3 5 3 4 5 6 8 8 7 8 9 9 10 10 10 9 9 9 9 9 9 11 15 18 21 24 26 27 29 29 30 30 31 32 32 32 33 33 33 33 34 34 34 35 35 35 35 35 35 35 33 31 29 28 27 26 25 23 21 20 19 18 17 17 18 18 18 19 20 20 20 19 18 19 21 24 25 26 26 25 24
3 3 4 3 1 0 1 2 1 1 1 4 4 4 3 3 4 4 2 6 7 6 7 8 9 10 10 10 10 10 9 8 8 9 8 8 8 11 16 19 21 25 27 28 29 28 28 29 30 31 32 33 32 32 32 32 32 33 34 35 35 35 35 35 35 34 32 30 28 27 26 25 24 22 22 21 19 18 18 19 19 20 21 21 22 22 22 20 19 19 22 24 26 28 29 28 26
2 2 2 1 2 3 2 2 3 2 2 2 3 4 3 5 6 5 7 8 8 9 9 10 11 12 12 11 10 9 9 8 9 9 9 9 9 13 18 21 23 25 27 27 25 25 27 29 30 30 31 30 30 30 30 30 31 32 33 32 32 32 32 32 31 30 29 28 27 26 25 24 22 21 21 19 18 18 19 20 20 21 22 23 24 24 23 20 19 21 23 24 25 27 30 30 28
2 2 3 1 0 2 2 0 1 2 3 2 1 3 5 6 4 6 9 8 10 12 12 11 11 12 12 10 9 9 9 9 9 9 9 10 10 13 18 22 23 24 24 24 24 25 27 28 29 30 30 28 28 28 28 28 28 29 29 27 27 27 28 27 26 25 24 24 23 23 22 19 17 16 16 15 14 16 19 22 23 22 23 24 24 24 24 23 22 21 19 20 21 23 26 27 27
5 5 6 5 2 3 2 2 2 1 2 3 2 2 7 6 3 5 7 7 10 12 12 11 11 12 12 10 10 10 10 10 10 9 10 9 9 12 16 19 20 20 22 23 24 25 25 26 28 30 29 28 27 26 26 25 25 26 26 26 26 26 26 25 23 22 21 20 20 19 18 15 14 13 13 12 13 15 18 21 24 25 25 25 24 24 24 23 21 18 16 16 18 20 22 24 25
Wind_Direction
158 156 142 140 135 130 103 49 69 6 55 294 268 187 249 216 194 260 259 145 109 253 103 102 124 133 118 162 183 180 156 162 179 151 199 302 164 164 165 167 166 164 163 164 165 163 163 166 169 168 169 170 168 164 163 158 151 147 143 144 147 152 152 148 145 142 142 141 142 143 144 146 146 148 151 152 153 153 153 154 155 155 154 155 155 156 157 159 162 164 167 172 180 188 196 208 217
154 158 147 137 122 113 123 70 101 55 49 283 243 187 236 177 192 225 221 206 169 138 51 89 116 101 32 22 130 155 192 153 151 128 103 103 132 155 166 167 165 164 163 164 165 163 163 167 170 169 168 170 170 166 161 154 147 146 148 151 153 153 150 145 143 141 141 144 146 147 148 148 149 150 153 155 155 155 156 159 160 162 162 163 162 162 162 161 165 167 172 178 184 194 201 208 214
154 157 148 136 99 53 81 63 86 164 206 257 251 206 185 174 216 232 222 209 126 121 86 91 87 356 348 57 104 182 218 333 118 106 113 137 138 159 168 165 164 163 162 163 165 164 164 168 170 168 167 170 168 161 155 150 149 152 155 155 154 151 148 145 142 143 143 147 149 150 150 149 150 150 154 155 153 155 160 163 164 167 168 168 168 169 169 166 170 173 178 186 193 201 205 208 211
157 155 149 141 62 30 89 52 120 190 224 241 269 249 193 182 239 286 292 89 103 135 121 118 131 81 228 171 124 238 204 156 142 127 140 163 160 163 165 162 161 160 160 163 165 166 166 169 171 168 168 167 159 154 153 152 155 157 159 157 154 150 148 148 146 147 147 150 151 151 151 150 150 150 156 155 152 155 160 162 163 168 171 172 174 176 177 177 180 183 189 198 202 208 210 211 212
154 149 147 150 305 121 113 184 180 202 222 193 223 265 235 186 194 260 10 63 131 157 147 145 163 89 139 206 181 205 187 104 142 150 143 163 164 160 162 160 159 158 160 163 166 167 167 170 170 169 168 162 156 154 155 157 159 161 162 158 154 152 152 153 153 153 153 155 155 155 156 156 155 156 162 160 156 159 161 163 165 169 173 177 180 181 183 185 188 191 198 205 206 210 216 218 221
142 140 141 64 352 74 162 214 212 220 225 157 188 249 239 209 177 202 89 63 193 183 199 160 172 121 177 218 159 172 179 136 142 163 149 156 163 159 160 158 157 157 159 164 167 168 168 169 169 169 167 161 158 157 159 160 164 165 162 158 155 155 155 157 159 160 159 158 158 159 161 160 159 159 164 161 158 162 161 164 171 171 174 178 181 184 185 188 193 197 202 208 212 217 225 229 237
139 131 134 220 61 333 214 235 230 223 239 188 196 204 196 201 150 131 106 167 186 190 224 165 153 138 219 162 139 10 82 141 141 159 157 156 159 158 158 158 156 156 160 165 167 168 166 166 167 168 165 162 162 162 163 164 167 166 161 159 159 159 160 163 164 165 163 160 161 162 162 162 161 161 166 163 160 167 165 173 177 174 176 179 182 186 189 195 200 204 209 218 224 231 239 246 252
147 131 319 203 197 207 212 250 244 210 236 221 207 194 192 189 159 153 168 162 151 186 170 161 168 137 286 66 108 3 55 120 139 150 154 153 155 157 158 158 156 157 161 165 166 166 164 164 165 166 165 164 167 167 166 167 169 167 163 163 165 166 167 167 166 165 163 163 163 166 167 166 165 166 171 170 170 175 179 184 182 182 183 184 189 193 199 204 209 214 220 229 236 242 247 250 253
148 76 120 222 225 218 225 240 248 230 238 243 237 211 193 185 180 186 190 166 149 207 171 155 154 152 291 54 89 6 63 117 133 142 149 151 153 156 158 159 158 157 161 164 164 164 163 163 165 167 166 167 170 169 168 169 171 167 164 166 168 170 171 170 167 163 164 168 169 171 172 171 173 171 174 178 181 189 193 191 187 190 191 198 203 204 208 209 216 225 234 239 245 249 251 251 253
130 7 150 253 219 236 248 227 236 236 237 243 242 226 192 185 199 201 196 164 171 212 155 126 114 164 111 76 77 37 107 130 133 138 148 150 152 156 158 160 160 158 161 162 163 165 163 164 167 169 169 170 173 171 171 171 172 169 167 168 170 173 174 173 170 169 170 176 179 179 176 176 178 177 185 191 195 202 202 195 197 203 202 211 214 213 214 214 222 228 237 240 245 247 247 250 251
123 88 142 258 220 229 242 243 251 246 236 252 252 229 199 187 194 206 192 152 174 187 146 127 139 173 95 91 78 96 119 135 137 139 148 151 153 156 157 159 160 159 160 161 164 166 165 166 169 172 172 173 176 174 173 173 174 173 172 171 173 175 177 179 177 178 178 182 187 186 185 186 186 190 199 205 207 211 208 202 211 220 214 211 213 214 215 218 224 228 234 236 242 243 244 248 249
137 123 109 243 241 245 248 263 266 277 268 249 234 214 195 179 190 207 185 168 172 171 159 164 165 140 95 67 102 111 113 128 138 143 149 151 152 155 157 157 159 160 161 162 165 166 166 168 171 174 177 176 177 177 175 176 177 177 177 176 178 177 181 184 182 185 186 188 194 195 198 198 201 207 211 213 214 213 212 209 214 222 221 215 213 216 220 224 230 234 238 241 245 247 250 252 253
155 146 139 236 242 228 261 276 273 294 280 241 225 195 167 179 208 213 177 171 169 163 164 177 157 93 96 68 117 125 115 124 140 146 149 150 152 154 156 156 158 160 162 164 166 167 167 170 175 178 179 179 179 178 178 180 182 181 181 181 182 182 185 186 187 192 191 195 203 207 208 207 215 224 231 228 220 218 220 217 217 219 220 221 220 219 222 225 229 237 242 246 250 252 256 258 259
187 160 148 236 281 232 253 267 267 283 270 235 222 165 168 201 225 198 159 163 164 159 141 158 74 84 113 115 130 143 131 139 144 146 148 148 151 152 154 156 158 160 162 166 168 169 168 171 180 182 181 181 181 181 181 184 186 185 185 186 186 187 188 188 192 196 195 204 213 220 220 220 227 232 243 242 226 225 232 230 229 227 227 228 226 223 224 226 229 237 245 250 254 257 261 264 264
182 144 158 234 233 249 217 234 252 254 261 200 165 164 177 218 198 170 173 164 147 120 94 139 243 85 167 164 161 162 141 146 145 142 143 144 147 150 153 155 158 160 162 167 170 171 170 174 184 186 185 183 183 184 184 186 189 189 188 190 191 191 194 194 197 200 205 214 225 233 232 232 238 239 247 254 244 237 240 241 242 240 237 237 235 234 234 236 237 240 244 248 254 258 262 266 267
160 113 162 264 231 244 201 215 245 246 269 147 145 176 182 201 167 184 203 162 112 113 105 139 231 165 172 171 152 143 141 145 142 139 139 138 142 145 149 154 158 162 164 169 173 175 175 178 186 190 189 186 186 188 188 188 190 193 193 193 196 197 198 202 204 208 216 227 240 242 237 236 242 244 243 254 259 253 249 249 253 253 248 246 245 247 247 248 249 249 249 252 258 261 265 270 272
35 72 102 281 230 231 203 207 225 256 284 164 165 192 190 183 154 186 205 115 105 120 120 107 102 111 144 137 133 135 140 143 140 136 135 135 139 141 147 155 160 165 169 174 176 178 181 184 189 193 193 190 190 192 193 191 190 195 197 198 200 201 202 209 213 217 225 235 247 246 238 243 249 247 243 247 252 254 255 252 257 260 259 258 257 257 256 257 258 257 258 260 263 265 268 272 273
106 105 154 249 230 223 233 239 259 298 285 193 170 195 201 179 152 176 167 97 95 117 109 44 42 78 109 120 128 134 141 143 141 139 138 140 143 145 151 159 165 171 174 178 181 183 187 190 193 196 196 194 194 195 196 195 193 195 200 203 203 201 204 215 219 221 230 238 246 242 232 242 254 254 252 254 253 254 257 256 258 262 266 268 268 267 265 264 266 267 267 267 268 270 271 273 274
181 161 206 241 241 235 245 290 300 289 284 248 157 179 196 196 164 178 162 124 124 139 157 34 66 104 114 121 129 137 143 145 147 146 146 150 154 156 158 165 171 176 179 182 186 188 191 194 197 199 199 198 198 199 200 200 198 198 203 206 207 204 202 213 222 226 234 243 249 241 225 233 246 251 254 258 261 262 265 266 265 268 273 273 275 275 274 273 275 276 276 275 275 276 277 278 281
191 201 239 233 262 264 241 279 277 270 287 291 188 178 170 192 182 183 139 126 139 162 177 152 127 132 129 132 136 141 146 149 154 153 154 158 161 164 163 170 177 181 184 186 189 192 195 197 200 202 203 202 202 203 203 203 203 203 205 207 212 211 206 211 223 234 243 250 254 242 227 231 239 245 250 252 256 259 264 265 263 265 269 270 273 275 275 276 279 279 279 280 280 281 282 284 287
163 204 219 124 239 275 260 293 287 272 293 290 226 166 152 167 168 109 130 125 156 186 191 163 152 147 138 141 144 146 151 155 160 159 160 162 165 169 172 177 182 184 185 187 192 195 198 200 202 205 205 206 205 206 206 206 207 207 209 210 214 218 218 217 224 238 248 255 255 244 234 235 238 242 246 250 254 257 262 266 265 266 267 269 271 274 276 279 281 282 283 283 283 285 286 288 289
214 225 244 155 203 269 303 329 313 278 266 278 190 134 136 135 60 86 146 146 170 180 188 170 155 151 146 148 149 151 158 161 164 165 166 167 169 172 175 179 183 186 186 191 196 198 201 202 205 206 207 209 208 209 209 209 209 211 213 214 216 222 226 225 227 235 246 254 252 245 240 238 240 243 246 250 253 258 263 266 270 274 276 276 277 280 281 284 288 290 291 291 291 291 291 292 293
236 245 271 241 225 265 351 300 294 95 75 32 33 56 114 116 77 41 156 163 147 143 160 162 157 156 150 149 152 157 164 167 169 172 172 172 173 174 175 179 184 188 191 197 199 201 204 204 206 208 209 210 210 211 212 211 211 212 216 219 220 223 227 229 229 232 240 249 249 245 241 240 241 243 247 249 251 257 262 265 271 276 279 281 283 286 288 291 293 295 295 295 295 295 294 295 295
213 273 311 337 271 311 162 164 122 63 59 45 336 324 63 86 71 30 221 209 166 134 141 144 153 157 150 151 160 164 167 172 175 177 178 178 178 178 178 182 187 190 193 199 202 203 206 207 207 209 210 211 212 213 213 214 213 214 217 222 225 227 230 231 231 234 240 245 245 242 240 240 240 242 244 246 251 257 261 268 274 276 278 281 284 286 288 292 294 295 296 296 297 297 297 296 295
214 249 302 47 311 32 61 89 76 50 68 65 312 41 58 53 59 173 237 238 225 163 138 131 143 153 156 160 164 167 169 174 176 178 182 185 182 179 180 184 186 190 196 200 204 206 208 209 208 209 211 211 213 213 215 216 216 217 219 223 229 231 233 235 237 240 243 244 241 237 237 238 238 241 242 245 253 257 261 269 274 277 279 281 284 284 286 291 293 296 297 298 299 299 299 296 294
206 213 98 91 288 31 89 82 68 49 75 351 352 72 84 309 352 200 263 262 253 150 135 131 145 157 165 167 167 170 171 173 177 179 183 186 184 181 183 185 187 193 199 202 204 208 210 210 210 210 211 212 213 214 216 217 218 220 221 225 230 233 235 237 240 242 245 243 238 234 234 236 238 241 244 247 253 256 261 268 272 278 281 284 286 287 289 292 294 298 300 301 303 304 303 298 293
157 149 118 127 223 263 82 97 80 75 86 31 8 77 57 323 351 202 251 261 247 138 142 138 151 163 169 172 172 174 174 177 178 176 178 180 183 187 187 186 191 197 200 202 207 210 210 211 212 212 212 212 214 215 217 218 220 221 225 229 232 235 238 240 242 243 244 240 235 233 233 235 237 240 244 248 254 259 263 267 272 279 281 284 288 290 292 294 297 301 303 304 306 306 303 297 292
123 134 128 124 130 55 340 112 91 30 92 63 333 74 27 349 343 229 236 249 212 162 160 147 156 169 172 173 175 178 181 181 176 172 175 181 187 190 190 192 194 198 202 205 209 210 210 212 213 213 214 213 215 216 218 219 221 224 228 232 235 238 240 242 243 241 239 236 234 233 233 234 236 239 244 248 255 261 266 270 275 279 281 284 289 291 292 295 298 302 304 306 305 302 298 294 291
131 146 148 115 108 91 293 97 101 310 99 166 214 81 335 284 260 245 233 229 192 171 168 155 160 170 174 174 176 183 184 181 178 179 185 188 189 190 194 197 195 197 205 208 209 209 211 213 214 215 215 215 217 218 219 221 223 225 229 231 235 238 240 240 239 236 234 232 231 231 231 233 236 240 245 250 255 260 265 269 274 278 281 287 293 294 294 296 298 299 304 308 303 293 289 290 289
145 143 83 337 53 67 288 345 132 82 61 168 186 82 254 243 248 253 237 176 170 169 172 161 158 168 174 175 177 185 185 183 187 190 191 192 192 192 196 199 197 199 204 205 206 209 211 212 214 215 217 218 219 220 222 222 223 224 227 230 233 236 236 235 233 231 230 229 228 229 231 234 237 242 247 252 257 261 265 268 271 274 278 285 292 295 296 297 296 294 301 308 303 291 282 282 284
151 343 54 40 10 243 268 224 161 132 41 12 17 49 246 242 245 248 226 172 166 169 174 164 158 166 172 176 178 184 189 192 196 195 194 195 195 197 197 197 198 200 200 201 205 209 210 211 212 213 216 218 219 221 222 221 221 222 226 230 233 235 233 232 230 230 230 231 232 234 237 240 243 247 252 257 262 265 267 269 271 273 276 281 284 288 292 293 291 291 300 305 302 294 282 276 276
93 318 328 14 68 266 296 194 182 150 113 22 354 233 259 251 246 242 199 163 171 170 171 169 165 164 170 178 180 184 193 198 200 198 197 197 197 199 199 197 197 199 199 201 205 207 209 210 211 212 215 217 218 220 220 219 220 223 227 231 233 233 232 231 230 231 233 234 238 241 243 247 251 255 259 263 267 268 270 271 273 275 277 278 278 281 286 287 287 291 300 306 303 300 289 276 270
360 182 256 318 146 275 328 179 211 146 125 94 330 236 282 259 258 251 171 150 173 171 170 179 172 164 170 178 183 185 192 199 203 204 201 199 200 201 200 198 198 200 201 203 204 205 207 209 211 213 216 217 217 219 220 219 221 225 228 230 232 232 232 234 234 235 237 239 242 244 246 250 254 258 261 265 269 271 272 274 278 280 279 278 277 277 279 281 284 290 297 307 311 308 296 282 277
326 18 243 271 173 203 295 191 217 157 139 158 163 228 261 264 295 293 170 152 171 179 180 185 177 172 174 178 186 187 189 195 201 207 203 201 202 203 202 200 200 202 204 205 206 207 208 209 211 214 217 218 217 218 220 221 223 226 229 231 233 234 235 236 238 241 242 244 247 248 249 253 256 259 262 266 270 273 273 275 278 281 279 277 275 274 274 273 278 287 291 298 305 302 296 294 295
208 184 237 276 229 191 213 230 181 165 161 165 160 225 253 259 284 299 238 160 171 191 187 185 184 180 179 181 188 189 190 197 201 203 202 202 202 203 202 202 202 203 204 206 207 208 208 209 211 214 216 218 218 219 221 223 224 227 229 233 236 237 238 238 239 241 244 246 249 252 254 257 260 262 265 268 271 274 275 276 278 279 278 275 273 271 271 271 277 290 293 290 287 287 292 296 299
201 212 197 246 274 248 214 223 178 164 159 178 181 208 241 253 260 270 250 173 173 196 190 188 190 186 186 186 191 193 194 201 203 201 201 201 202 203 202 202 203 203 204 205 206 207 208 208 210 213 216 218 219 219 220 222 223 226 229 232 235 236 237 237 239 241 244 247 249 252 255 258 262 265 268 271 274 277 278 278 279 278 275 272 269 269 272 275 283 293 294 286 278 277 283 289 293
302 291 282 260 275 277 231 211 179 160 154 200 199 209 238 249 253 252 223 181 183 194 192 195 196 193 192 192 195 198 200 206 205 202 201 202 203 204 203 202 202 202 203 204 205 207 209 209 209 213 216 217 217 218 219 219 220 221 224 227 231 233 235 237 239 241 244 247 249 252 254 256 259 263 265 270 274 277 278 280 282 280 273 267 264 266 272 277 281 286 284 281 280 277 279 283 287
278 277 291 284 266 271 278 168 168 164 153 216 190 209 245 243 247 244 200 190 198 197 195 196 199 199 195 196 201 200 203 211 208 204 203 204 206 206 205 203 201 200 202 203 206 209 210 209 211 215 216 216 218 219 219 221 222 221 221 224 228 231 234 236 238 240 243 247 250 253 255 256 258 259 261 264 267 268 269 274 279 281 275 264 259 260 265 269 273 276 275 278 281 278 279 280 283
264 264 285 288 254 232 360 58 155 170 166 275 180 200 245 245 244 238 208 204 207 202 199 196 195 198 199 199 201 200 200 207 211 209 204 204 208 208 206 205 204 204 204 205 209 211 209 210 214 216 217 217 219 220 222 224 226 226 226 227 229 233 236 239 242 244 246 248 250 253 255 257 258 259 257 256 256 257 262 267 270 272 269 263 257 256 259 262 266 272 274 279 281 278 279 281 284
258 245 252 275 242 186 310 11 154 176 182 121 166 204 264 261 252 245 219 209 210 206 205 202 194 197 203 201 197 197 197 202 209 211 207 202 206 207 206 206 207 208 207 206 210 211 210 213 215 215 217 220 221 222 225 227 227 228 230 232 234 238 242 245 249 250 250 251 252 253 255 257 258 257 254 249 251 256 260 264 268 269 266 264 262 260 260 260 263 270 275 280 281 277 278 282 286
262 232 225 258 245 188 192 152 139 172 236 132 112 26 296 247 229 242 225 200 209 209 204 210 209 204 205 201 198 198 197 200 202 205 204 197 199 203 205 207 207 208 209 210 211 212 213 216 217 217 218 221 223 225 226 226 226 227 229 231 234 240 244 246 248 250 250 250 252 253 253 256 256 254 251 249 253 257 259 263 270 274 271 267 266 265 263 262 265 271 276 280 281 277 275 279 283
287 242 218 241 242 149 120 140 133 93 266 219 117 57 296 263 226 229 209 192 209 205 201 212 214 207 205 204 204 202 200 201 202 201 195 191 196 198 203 206 206 209 212 213 215 214 216 218 219 218 219 221 224 226 226 224 225 225 225 225 226 231 236 237 239 242 245 247 251 253 254 254 252 251 251 252 255 257 260 265 271 277 274 268 266 266 265 265 267 271 277 280 282 281 278 276 280
294 250 213 225 208 138 141 156 148 124 210 221 152 142 279 302 258 224 192 198 213 207 211 217 213 207 207 208 206 203 202 202 204 206 195 186 189 190 197 204 205 210 215 216 217 216 217 219 220 220 221 222 224 226 225 224 224 223 224 225 225 226 229 235 238 240 243 247 251 254 256 255 252 252 254 256 257 257 260 266 272 277 275 268 265 265 266 267 270 274 278 280 281 282 278 273 280
265 266 247 192 157 155 164 158 146 172 170 305 156 141 306 297 272 222 174 190 221 220 221 221 215 213 211 210 208 203 203 201 201 207 203 191 186 187 195 202 206 212 216 217 217 217 218 219 221 222 223 224 224 224 225 225 224 223 224 224 226 228 231 238 240 241 243 246 249 253 255 256 256 257 258 260 260 259 260 263 271 277 272 266 264 265 268 271 273 276 278 278 277 277 276 274 279
252 283 342 59 145 155 159 145 117 110 89 346 197 140 131 270 284 286 158 186 224 226 223 221 216 213 211 210 210 206 205 203 201 206 208 201 190 192 197 202 207 212 216 217 217 218 219 219 220 221 224 225 224 223 224 226 226 225 225 224 226 230 234 239 241 242 243 243 246 250 255 257 258 259 260 263 265 264 263 265 273 276 271 266 265 268 271 273 275 277 278 278 277 277 277 277 277
248 65 57 49 81 96 95 119 86 45 27 267 195 156 148 269 279 17 134 201 225 224 223 220 216 213 210 210 209 208 206 203 203 206 209 209 203 200 200 202 207 212 216 218 218 219 218 218 218 219 224 226 225 224 224 226 227 225 225 225 227 231 234 237 238 240 242 242 244 248 252 255 256 258 259 262 265 265 265 268 272 275 274 273 273 274 275 275 277 280 281 280 278 278 279 278 278
228 82 76 50 45 63 57 67 72 51 311 269 192 170 147 295 277 199 174 213 211 209 219 219 216 215 212 211 208 206 206 202 204 205 208 213 213 211 206 203 206 211 215 216 217 218 217 216 216 218 223 225 226 225 224 226 227 225 226 227 229 233 234 234 234 236 239 240 243 246 250 253 255 256 256 258 262 264 264 265 269 272 275 276 276 275 274 274 278 280 281 279 277 278 279 281 280
189 96 97 60 4 13 25 16 43 89 263 283 208 162 144 205 266 224 218 240 193 191 209 211 211 212 211 211 207 205 204 202 202 205 208 209 211 215 212 210 210 210 211 213 214 217 217 215 215 217 221 223 225 225 224 226 226 225 227 229 231 234 234 232 232 236 238 239 242 246 249 252 255 254 253 255 259 262 261 262 265 269 272 273 273 272 270 272 278 280 280 279 278 279 278 278 277
151 107 82 71 349 351 4 343 4 201 247 268 140 128 149 233 253 244 236 242 217 198 207 205 204 207 208 209 206 204 201 201 203 204 208 207 205 208 209 214 215 209 208 212 215 216 216 215 215 216 219 222 224 225 225 225 225 226 228 229 232 235 234 233 234 237 239 241 243 245 248 251 253 254 253 254 259 263 263 263 265 269 272 275 276 274 271 273 276 277 278 277 277 276 276 276 276
168 153 118 115 119 29 278 271 301 257 271 272 146 145 232 268 266 249 233 232 217 202 209 205 198 200 204 204 202 202 200 200 203 203 205 207 206 205 205 211 214 212 209 211 214 216 215 215 214 215 219 222 224 224 224 224 225 228 230 231 232 233 233 234 235 237 240 242 243 245 249 252 254 256 257 259 264 268 269 268 268 269 272 276 278 276 272 271 273 274 274 273 273 273 274 275 275
197 171 128 151 163 166 213 213 202 229 278 308 146 168 201 212 249 238 232 238 214 194 203 197 192 199 198 196 195 198 202 202 202 203 205 205 202 200 202 206 211 213 211 209 211 213 213 213 214 215 218 221 222 223 223 224 225 228 230 231 232 233 234 235 237 239 241 242 244 245 249 254 256 259 262 264 267 272 272 269 267 268 271 273 276 275 270 269 269 270 269 269 270 271 271 271 270
236 129 101 189 186 157 174 187 177 175 192 307 227 225 218 212 259 279 276 247 196 186 185 167 177 191 180 187 195 196 201 202 200 203 205 206 203 198 198 202 207 212 212 209 208 208 208 210 212 213 217 220 221 222 222 224 226 228 229 230 232 232 234 235 237 240 242 243 245 247 251 255 258 261 264 265 269 271 270 267 265 267 269 271 273 272 270 269 268 268 268 268 268 269 269 269 267
182 127 161 226 157 132 122 286 228 113 158 269 224 252 290 313 298 315 14 101 163 176 177 171 180 178 173 191 198 198 200 198 198 202 203 205 204 202 199 199 202 208 212 212 209 208 207 208 209 212 215 217 218 220 221 224 227 228 229 231 232 232 233 236 238 241 243 244 245 248 252 255 258 261 263 264 267 267 266 266 267 268 270 271 272 271 270 270 271 272 272 270 270 269 267 266 263
121 188 206 162 65 91 97 333 347 44 240 275 246 243 287 338 298 319 36 125 167 175 175 175 175 174 188 202 201 199 198 191 193 198 202 202 202 207 204 202 204 207 212 214 214 212 209 209 210 211 212 214 217 219 222 225 227 228 230 231 232 233 235 238 241 243 243 243 245 248 251 254 258 261 262 262 263 263 265 267 268 271 273 273 272 270 268 268 271 276 278 276 275 271 265 261 258
145 188 177 130 128 253 88 163 197 89 217 283 300 282 269 206 231 281 223 186 184 173 170 173 179 186 199 205 203 200 191 184 189 194 200 201 200 206 207 207 209 211 214 217 216 214 211 211 213 214 216 217 218 219 222 225 228 230 232 233 235 236 238 242 244 244 242 242 244 248 251 255 260 262 260 261 263 264 267 269 271 274 274 273 273 270 267 266 271 280 283 281 278 273 265 258 253
53 108 129 131 158 168 170 160 164 171 188 258 310 320 274 228 224 223 215 201 178 169 175 185 192 195 201 202 199 195 187 186 191 193 198 201 202 207 207 209 212 214 217 219 217 216 215 216 216 217 220 220 219 220 223 226 230 232 233 235 237 238 241 244 245 243 242 241 243 246 250 255 261 263 266 270 273 277 280 280 278 278 276 276 275 271 267 268 277 284 285 282 278 273 266 259 253
135 174 187 222 74 143 175 154 123 145 154 179 275 310 271 252 219 206 214 197 179 180 182 189 196 198 202 202 194 189 188 190 191 192 197 200 203 207 209 212 214 215 219 219 218 219 219 219 220 220 221 220 220 223 225 228 231 232 233 235 238 240 241 242 242 242 241 240 242 244 247 253 262 271 277 280 285 294 296 289 283 279 276 274 272 269 268 272 278 281 282 282 278 271 265 260 256
180 194 186 186 179 130 137 296 308 88 143 172 162 271 272 261 212 223 230 193 188 192 182 183 195 198 200 199 193 190 189 190 192 194 197 198 201 206 209 211 212 213 216 218 218 219 219 221 224 225 225 223 224 225 226 229 230 231 233 235 237 240 241 240 239 240 241 241 243 244 245 248 254 259 258 257 267 281 286 285 284 283 280 277 272 269 270 273 272 273 277 281 278 271 264 259 256
Height
767 769 769 770 771 773 776 777 793 797 798 810 804 801 793 780 781 783 783 780 780 776 769 770 769 770 774 779 778 776 777 781 785 794 797 776 767 771 770 773 775 778 781 784 787 789 791 793 795 796 798 799 801 802 804 805 806 807 808 809 810 812 812 813 814 815 816 817 817 818 819 820 820 821 822 823 824 824 825 826 827 828 829 829 830 831 831 832 832 833 833 834 834 834 834 833 833
768 770 769 772 771 776 781 780 800 806 806 815 803 797 789 779 783 784 782 779 778 773 768 769 769 769 770 770 770 775 776 774 772 776 776 770 770 772 773 774 775 778 781 784 787 789 791 793 795 796 798 800 802 803 804 805 807 808 809 810 811 812 813 814 815 816 817 817 818 818 819 820 821 822 823 824 824 825 826 827 827 828 829 830 830 831 831 832 832 833 834 834 834 834 834 833 833
768 770 770 773 773 776 782 786 802 809 811 815 801 789 783 783 784 780 777 774 772 769 769 770 771 771 771 774 773 778 779 771 769 771 772 771 771 772 775 775 777 780 782 785 787 789 791 793 795 797 798 800 802 803 805 806 807 809 809 810 811 812 813 814 815 816 817 818 818 819 820 821 821 822 823 824 825 826 826 827 828 829 829 830 830 831 831 832 833 833 834 834 834 834 834 834 834
768 770 770 773 777 781 787 796 802 807 810 807 797 787 782 783 780 776 774 771 769 768 770 771 774 771 772 779 775 775 776 771 768 768 771 771 770 772 774 776 779 781 783 785 787 789 791 793 795 797 799 801 803 804 805 807 808 809 810 811 812 813 814 815 816 817 817 818 819 820 820 821 822 823 824 824 825 826 827 828 828 829 830 830 831 831 832 832 833 833 834 834 834 834 834 835 835
769 771 773 774 781 785 789 798 799 804 803 795 792 786 781 779 776 776 773 771 769 769 771 772 776 771 770 774 771 774 774 770 767 765 768 769 770 772 774 777 779 781 784 786 788 790 791 794 796 797 799 801 803 804 806 807 808 809 810 811 812 813 814 815 816 817 818 819 819 820 821 822 823 824 824 825 826 827 828 828 829 829 830 831 831 832 832 832 833 833 834 834 834 835 835 835 836
771 773 775 776 780 781 790 799 799 801 790 782 787 783 778 775 774 775 773 772 769 769 770 771 775 773 773 769 766 769 767 767 766 764 766 768 770 773 775 777 779 782 784 786 788 790 792 795 797 798 800 801 803 805 806 808 809 810 811 812 813 814 815 816 817 818 818 819 820 821 821 822 823 824 825 826 826 827 828 829 829 830 831 831 831 832 832 833 833 834 834 834 835 835 835 835 836
771 776 779 781 782 783 794 799 796 796 783 776 781 778 775 773 772 773 774 774 772 770 769 770 770 774 777 768 767 766 762 764 763 764 765 766 770 773 776 778 780 783 785 787 789 791 793 795 797 799 800 802 803 805 807 808 809 810 811 812 813 814 815 816 817 818 819 820 820 821 822 822 823 824 825 826 827 827 828 829 830 830 831 831 832 832 833 833 833 834 834 835 835 835 835 836 836
772 777 779 785 790 789 795 796 791 789 781 773 773 772 772 771 770 771 773 775 775 773 770 770 767 777 777 767 773 768 762 763 761 764 766 767 771 774 777 778 780 783 785 787 790 792 794 796 798 799 801 802 804 805 807 808 809 810 811 812 814 815 815 816 817 818 819 820 821 821 822 823 824 824 825 826 827 827 828 829 829 830 831 832 832 832 833 834 834 835 835 835 835 836 836 836 837
772 776 781 786 792 792 793 793 788 783 777 772 770 769 769 768 768 769 772 773 774 773 771 769 768 778 776 770 776 769 764 765 763 766 767 770 772 774 777 779 781 783 786 788 791 793 794 797 798 800 801 803 804 806 807 808 809 810 812 812 814 815 816 817 817 818 819 820 821 822 822 823 824 824 825 826 827 827 828 829 829 830 831 832 832 833 833 834 834 835 835 836 836 836 836 837 837
774 778 783 788 791 795 795 791 786 781 775 771 769 767 766 766 766 768 772 773 773 773 771 766 768 775 775 776 777 769 768 766 764 768 770 771 773 776 778 780 782 783 786 789 791 794 795 797 799 801 801 803 805 806 808 809 810 811 812 813 814 815 816 817 818 818 819 820 821 822 823 823 824 825 826 826 827 827 828 829 829 830 831 832 832 833 833 834 835 835 836 836 836 836 836 837 837
779 780 782 791 794 797 796 790 784 779 774 770 768 764 763 764 766 769 770 773 771 773 770 767 772 773 774 778 776 770 768 767 766 769 771 773 775 778 780 782 784 784 786 789 792 794 796 798 799 801 802 804 805 807 808 809 810 811 812 813 814 815 816 817 818 819 819 821 821 822 823 824 825 825 826 827 827 828 828 829 830 830 831 831 832 833 833 834 835 835 836 836 836 836 836 837 837
782 784 784 794 795 794 791 789 784 778 774 772 770 764 762 763 767 769 770 773 770 772 769 767 769 768 776 780 775 770 769 770 769 770 773 775 777 780 781 783 785 786 788 790 793 795 797 798 800 801 802 804 805 807 808 810 811 811 813 813 814 815 816 817 818 819 820 821 822 823 824 824 825 826 826 827 827 828 828 829 830 831 831 831 832 832 833 834 835 835 836 836 836 836 836 836 837
781 784 787 793 790 790 790 789 784 780 777 771 768 764 762 764 767 766 768 770 769 772 769 764 763 764 777 780 773 771 771 772 772 772 774 776 779 781 783 784 786 787 789 791 793 795 797 799 800 802 803 804 806 807 808 810 811 812 813 814 815 815 816 818 818 819 820 821 822 823 824 825 825 826 826 827 827 828 829 829 830 830 831 831 832 832 833 834 835 835 836 836 836 836 836 836 836
778 778 784 791 788 789 790 789 785 784 781 768 766 763 762 765 764 762 765 770 770 768 764 759 760 767 777 779 777 775 773 774 774 775 776 779 781 782 785 786 787 788 790 792 794 796 797 799 801 802 803 805 806 807 809 810 811 812 813 814 815 816 817 818 818 819 820 821 822 823 824 824 825 826 827 827 827 828 829 829 830 830 831 831 832 832 833 834 835 835 836 836 836 836 835 835 835
774 776 781 788 789 789 788 787 784 785 780 766 765 763 764 763 760 762 763 768 769 760 759 759 759 768 775 777 779 774 772 774 775 777 778 780 782 784 786 787 789 790 792 793 795 797 798 800 801 802 803 804 806 807 809 810 811 812 813 814 815 816 817 818 819 819 820 821 822 823 824 824 825 826 827 827 828 828 829 830 830 830 831 831 832 832 833 834 835 835 835 835 835 835 834 834 834
771 774 782 789 789 789 787 784 783 785 777 765 764 762 765 763 758 763 759 760 765 759 760 763 760 765 769 769 771 768 771 775 775 778 779 782 784 786 788 788 790 791 793 794 795 797 798 800 801 803 804 805 806 807 809 810 811 812 813 815 815 816 817 818 819 820 821 821 822 823 823 824 825 826 827 828 828 829 829 830 830 830 831 831 831 832 833 833 834 835 835 835 834 834 833 833 833
770 775 787 791 789 788 784 780 781 780 772 765 764 761 766 765 760 760 755 755 763 762 762 762 759 759 763 764 764 766 771 774 776 778 779 782 784 787 789 790 791 792 793 794 795 797 799 800 801 803 804 805 806 807 809 810 811 812 814 814 815 817 817 818 819 820 821 821 822 822 823 824 825 826 826 827 828 828 829 830 830 830 831 831 831 832 832 833 834 834 835 834 834 833 832 832 832
774 781 789 790 787 784 777 774 773 771 768 765 763 762 765 767 763 758 757 760 762 765 764 761 759 759 761 762 764 768 772 775 776 778 780 783 784 786 788 790 791 792 793 794 796 797 799 800 801 803 804 805 806 807 809 810 811 812 813 814 815 817 817 819 819 820 821 821 822 822 823 824 824 825 826 826 827 827 828 829 829 830 830 831 831 831 832 832 833 834 834 834 833 832 831 831 831
777 782 788 788 783 776 769 768 768 767 766 764 763 762 763 765 763 758 762 767 765 768 768 764 765 764 763 764 767 770 772 775 777 778 780 782 784 786 787 789 791 791 792 794 795 797 799 800 802 803 804 805 806 807 808 810 811 812 813 814 815 816 817 818 819 820 820 820 821 821 822 823 824 824 825 826 826 827 827 828 829 829 830 830 830 830 831 831 832 833 833 833 832 832 831 830 830
775 779 787 785 776 770 765 766 765 764 763 763 764 762 763 763 760 759 764 768 768 770 770 768 770 769 767 767 768 771 773 776 777 778 780 782 783 784 786 787 789 790 791 793 795 797 799 800 801 803 804 805 806 807 808 810 811 812 813 814 815 816 817 818 819 819 819 820 820 821 822 822 823 824 824 825 825 826 826 827 828 828 829 829 830 830 830 831 831 832 832 832 832 831 830 829 829
774 776 782 778 772 769 765 764 762 760 761 763 763 761 765 762 758 760 763 770 774 770 766 766 768 767 767 768 769 771 773 775 778 779 780 782 783 784 785 786 787 789 791 793 795 797 798 800 801 802 804 805 806 807 808 810 811 812 813 814 815 816 817 817 818 819 819 820 820 821 821 822 823 823 824 824 825 826 826 826 827 827 828 828 829 829 829 830 831 831 831 831 831 831 830 829 829
773 772 771 771 770 769 765 762 760 759 760 762 762 763 764 760 759 761 762 770 772 765 762 762 763 763 764 766 769 771 773 775 777 779 780 781 782 783 785 786 789 790 792 793 794 796 798 799 800 802 804 805 806 807 808 810 811 812 812 813 814 815 816 817 817 818 818 819 820 820 821 821 822 823 823 824 825 825 825 826 826 827 827 828 828 829 829 830 830 830 830 831 831 830 830 829 829
774 771 765 766 766 766 764 761 760 759 761 764 763 763 762 762 764 762 762 766 763 758 758 759 759 760 761 764 768 771 774 775 776 777 779 780 781 782 784 786 788 790 791 792 794 796 797 799 800 801 803 804 806 807 808 809 810 811 812 813 814 814 815 816 816 817 818 819 819 820 820 821 822 822 823 823 824 825 825 825 826 826 827 827 828 828 828 829 829 829 830 830 830 830 829 829 828
773 773 766 765 763 764 763 761 761 760 761 764 763 763 763 766 767 764 764 762 758 756 756 757 758 759 761 765 768 770 772 774 775 777 778 778 780 781 783 785 787 789 790 792 793 795 797 798 800 801 802 804 805 807 808 809 810 811 812 813 813 814 815 815 816 817 818 818 819 820 820 821 821 822 822 823 824 824 825 825 825 826 826 827 827 828 828 828 828 828 829 829 829 829 829 828 828
771 772 767 765 763 763 762 761 762 761 762 763 763 766 766 765 766 766 765 760 756 756 756 757 758 761 764 766 768 770 772 774 775 777 778 779 780 782 784 785 787 789 789 791 792 794 796 798 799 800 802 803 805 806 807 808 809 810 811 812 813 814 814 815 816 817 817 818 819 819 820 821 821 822 822 823 824 824 824 825 825 826 826 826 827 827 827 827 828 828 828 828 828 828 828 827 827
768 767 766 767 766 763 762 761 763 762 762 764 766 769 768 763 764 767 764 759 757 756 757 758 760 764 766 767 768 770 771 773 775 776 778 780 782 783 784 785 787 787 788 790 791 793 795 797 798 799 801 802 804 805 806 807 808 809 810 811 812 813 814 815 816 817 817 818 818 819 820 821 821 822 822 823 824 824 824 825 825 825 825 826 826 826 827 827 827 827 827 827 827 826 826 826 826
761 764 765 768 767 763 762 761 762 762 762 765 769 771 768 762 765 769 762 756 756 757 759 760 761 765 766 767 768 769 771 771 773 775 778 781 782 783 784 785 785 786 788 789 790 791 794 795 796 798 800 802 803 804 805 806 808 808 810 811 812 813 814 815 815 816 817 817 818 819 820 820 821 822 822 823 823 824 824 824 825 825 825 825 826 826 826 826 826 826 826 826 826 825 825 825 825
759 763 765 768 767 765 762 762 762 762 764 766 767 770 768 766 768 769 760 755 756 759 762 762 763 766 766 768 769 769 770 771 773 775 777 779 779 781 783 783 783 785 787 787 788 790 792 794 796 797 799 801 802 803 804 805 807 808 809 810 811 812 813 814 815 815 816 817 818 818 819 820 821 821 822 823 823 824 824 824 824 824 824 825 825 825 825 825 825 825 825 825 825 825 825 824 824
760 762 767 768 768 770 766 764 765 764 768 766 765 774 775 772 769 763 757 755 756 760 763 763 764 766 766 767 769 770 770 771 773 773 774 775 777 779 780 781 782 784 785 786 788 789 791 793 795 796 798 800 801 802 803 805 806 807 809 810 811 812 813 813 814 815 815 816 817 818 819 819 820 821 821 822 823 823 824 824 824 824 824 824 825 825 824 824 824 825 825 824 824 824 824 824 824
762 763 767 769 769 773 768 766 767 765 769 764 767 784 783 773 766 759 756 756 758 763 764 764 764 765 766 768 769 770 770 771 771 772 773 774 776 777 778 779 780 781 783 785 787 789 791 793 794 796 797 799 800 802 803 804 805 807 808 809 810 811 812 813 813 814 815 816 817 817 818 819 820 821 821 822 822 823 823 823 823 823 823 824 824 824 824 824 824 824 824 824 823 823 823 823 823
764 767 770 774 776 775 768 767 768 768 769 763 769 787 784 772 766 759 756 756 759 764 764 763 765 765 766 768 769 770 769 769 769 770 771 773 775 776 777 778 779 781 782 784 786 788 790 792 794 795 796 798 799 801 802 803 805 806 808 809 810 811 812 813 813 814 815 816 816 817 818 819 819 820 821 822 822 822 822 822 822 822 823 823 823 823 823 823 823 823 823 823 822 822 821 821 822
767 773 778 781 779 776 769 767 766 767 769 765 772 786 781 771 764 757 755 756 759 763 764 763 764 765 766 767 768 770 769 768 768 769 770 772 773 775 776 777 778 780 781 783 785 787 790 791 793 794 795 797 798 800 802 803 805 806 808 808 809 811 811 812 813 814 815 815 816 816 817 818 819 820 820 821 821 821 821 821 821 821 822 822 822 823 823 823 822 822 822 822 821 820 820 820 821
771 775 782 782 781 779 773 769 765 764 768 770 775 783 778 768 761 756 754 755 758 762 764 763 764 765 766 767 767 768 769 769 769 769 769 771 772 773 775 776 777 779 780 782 784 787 789 790 792 793 794 796 797 799 801 803 805 806 807 808 809 810 811 811 812 813 814 814 815 815 816 817 818 819 819 820 820 820 820 820 819 820 820 821 821 821 821 821 821 821 821 820 820 819 819 819 819
775 778 781 779 778 781 777 772 767 763 768 772 776 780 776 767 760 757 755 755 759 762 763 763 764 765 765 766 767 767 769 770 769 767 768 770 771 772 774 775 776 778 780 781 783 785 787 789 790 792 793 795 797 799 800 802 804 805 806 808 808 809 810 810 811 812 812 813 813 814 815 816 816 817 818 818 818 818 818 818 818 818 818 819 819 820 820 820 820 819 819 819 819 818 818 818 818
774 778 779 777 774 778 778 771 764 764 769 772 778 781 775 767 762 760 757 756 759 761 761 762 762 764 765 765 766 767 768 768 766 765 766 768 770 772 773 774 775 777 779 781 783 784 786 788 789 791 792 794 796 798 799 801 803 804 805 806 807 807 808 809 810 810 811 812 812 812 814 814 815 815 816 816 816 816 816 816 816 816 816 816 817 818 818 818 818 818 817 817 817 817 817 817 817
769 770 772 775 773 773 770 764 759 761 771 774 776 778 774 768 765 761 758 756 759 760 760 762 762 762 763 765 765 766 767 766 763 762 765 766 768 770 771 773 774 776 778 780 782 784 786 787 789 790 791 793 795 797 798 800 801 803 804 804 804 804 805 807 808 808 809 809 810 811 812 812 813 813 814 814 814 814 814 814 813 814 814 814 815 815 816 816 816 816 815 815 815 816 816 816 816
765 768 770 771 771 769 761 759 759 757 769 775 771 772 772 768 764 761 759 758 759 761 761 762 761 761 762 763 764 764 764 762 760 761 763 765 766 768 770 771 773 775 777 779 781 783 784 786 787 788 790 792 793 794 796 797 798 799 801 801 801 801 803 804 805 806 806 807 808 809 809 810 811 811 812 812 812 812 812 812 812 812 812 812 813 813 814 814 814 814 814 814 814 814 814 814 815
765 768 771 770 769 767 758 757 759 755 765 772 769 773 773 766 764 760 758 760 759 759 760 761 760 760 760 761 762 762 762 760 759 761 762 764 765 767 768 770 772 774 775 778 779 781 783 784 785 786 788 790 791 792 793 794 795 796 796 797 798 800 801 802 803 803 804 805 806 807 807 808 809 809 810 810 811 811 810 810 810 810 810 810 811 811 812 813 813 813 813 813 813 813 813 813 814
765 767 770 772 766 763 761 760 760 758 764 770 770 775 772 764 762 759 757 758 756 754 754 756 757 759 759 759 760 760 761 761 760 760 761 762 764 765 767 769 770 772 773 775 777 779 781 782 783 785 787 788 789 790 791 791 792 794 795 797 798 799 800 801 801 802 803 804 804 805 805 806 807 807 808 809 809 809 809 809 809 809 809 809 809 810 810 811 811 811 812 812 812 812 812 812 812
762 766 771 770 762 761 765 766 765 761 762 768 771 775 772 764 761 758 755 754 752 751 751 751 752 754 755 755 756 758 759 760 760 759 759 760 762 764 765 767 769 771 772 773 775 777 779 780 781 783 785 785 787 788 789 790 792 795 796 797 799 799 800 801 801 801 802 802 803 803 803 804 805 805 806 807 807 808 808 808 808 808 808 808 808 808 809 809 810 810 810 811 811 811 810 810 811
759 760 765 764 757 758 761 765 769 766 765 764 769 780 775 764 764 760 754 753 752 751 751 751 751 750 751 752 753 754 755 756 758 758 758 759 760 762 763 765 767 769 770 771 772 774 776 777 778 780 782 784 785 786 788 790 792 794 796 797 799 799 799 799 800 799 799 800 800 801 801 802 803 803 804 805 805 806 806 806 806 806 806 807 807 807 807 808 808 809 809 809 810 809 809 809 810
761 753 751 750 751 754 760 765 769 778 781 765 766 789 783 764 766 763 756 756 755 752 752 751 750 749 750 751 751 751 752 752 754 755 756 756 757 759 761 763 765 766 767 768 769 771 773 775 776 778 780 782 783 785 787 789 790 792 794 795 796 796 796 796 796 795 796 798 798 798 799 800 801 802 802 803 803 804 804 804 805 805 805 805 805 806 806 806 807 808 808 808 808 808 808 808 808
767 748 736 740 745 751 761 764 765 777 782 763 761 785 787 769 763 761 757 759 757 753 753 750 748 748 748 749 749 749 750 750 751 752 753 754 755 757 759 760 761 762 764 765 767 769 771 772 775 777 778 779 781 783 785 787 788 789 790 791 792 793 794 792 792 793 794 796 796 797 798 799 800 800 801 801 802 802 803 803 803 803 803 804 804 804 804 805 805 806 807 807 807 807 807 807 807
763 738 730 739 743 749 757 759 761 766 767 765 763 773 787 780 761 756 757 760 761 756 753 749 746 746 745 745 745 745 747 747 749 750 750 752 753 754 755 756 758 759 761 763 765 767 768 770 772 774 776 777 778 780 782 784 785 786 787 788 790 791 790 790 790 792 793 794 795 796 797 797 798 798 799 799 800 801 801 801 802 802 802 802 802 802 803 803 803 804 804 805 805 806 806 806 806
749 731 732 738 740 747 753 756 761 760 763 776 772 768 788 785 760 756 759 761 764 757 751 748 744 743 742 742 743 742 743 743 744 747 747 748 749 750 752 753 754 757 758 760 761 763 765 767 770 772 773 774 776 778 779 780 782 783 784 786 787 788 787 788 789 791 792 793 794 794 795 796 796 796 797 797 798 799 799 800 800 800 800 800 800 801 801 801 801 802 802 802 803 803 804 804 804
736 730 736 739 742 747 753 759 761 762 770 780 774 769 787 783 759 761 767 762 760 751 744 743 739 739 739 739 740 739 740 740 741 742 743 744 745 747 749 750 752 754 755 757 758 761 763 765 767 769 770 772 773 775 776 777 778 780 782 783 784 784 785 786 788 789 790 791 791 792 793 793 794 795 795 796 796 796 797 797 797 798 798 798 799 799 799 799 799 799 800 800 801 801 802 802 802
730 733 741 746 750 749 754 759 758 773 784 776 766 764 777 782 761 757 760 747 740 740 740 739 736 737 737 735 737 736 737 738 739 740 740 741 742 743 746 748 749 751 752 755 756 758 760 762 764 765 766 768 770 771 773 774 775 777 778 780 780 781 782 784 785 786 787 788 788 789 790 791 792 792 793 793 794 794 794 795 795 796 796 796 797 797 797 797 798 798 798 798 798 798 799 799 799
732 740 745 753 761 759 763 766 767 789 792 771 763 760 772 785 760 743 742 729 726 732 734 735 734 734 734 733 733 733 734 735 736 738 738 739 740 741 743 745 746 749 750 753 754 756 758 759 760 761 762 765 767 768 770 771 772 774 775 776 777 778 779 781 782 783 784 785 785 786 787 788 789 789 790 790 791 791 792 792 793 793 794 794 794 794 794 795 795 796 796 796 796 796 796 797 797
738 745 751 766 780 781 784 786 786 794 786 767 764 764 774 778 748 730 732 725 722 725 722 724 728 729 730 730 730 730 731 732 733 735 735 736 738 739 741 742 744 747 748 750 751 752 754 755 756 758 759 761 764 765 767 768 769 771 772 773 774 775 776 778 779 780 781 782 783 784 784 785 786 787 787 788 789 789 790 790 791 791 791 792 792 792 792 792 792 792 793 793 793 794 794 794 794
745 747 755 772 789 796 801 800 795 791 780 765 761 765 773 766 737 721 721 715 713 715 714 716 718 722 724 725 727 728 728 730 730 732 733 733 735 736 738 740 741 744 745 746 748 748 750 751 753 755 756 758 760 762 763 765 766 767 768 770 771 773 774 775 776 777 778 779 779 781 782 783 784 784 785 786 787 788 788 788 789 789 789 790 790 790 790 790 790 790 790 790 790 791 791 791 791
744 740 747 763 772 781 790 791 791 789 780 771 767 767 767 754 730 714 709 706 706 708 710 712 715 718 719 721 724 726 727 727 727 729 730 730 731 733 735 737 739 741 742 743 744 745 747 748 750 752 754 756 757 759 761 762 763 764 766 767 769 770 771 771 772 773 774 776 777 778 779 781 782 783 783 784 785 785 785 786 786 786 787 787 787 787 787 788 788 788 788 788 787 788 788 788 788
744 736 746 757 750 753 767 773 774 776 777 776 772 763 749 733 717 707 707 706 704 706 709 713 716 716 718 722 723 723 724 724 725 726 728 728 729 731 733 735 736 737 739 740 741 743 744 745 747 749 751 753 754 756 758 759 760 762 763 765 766 767 768 769 770 771 772 773 774 776 777 779 780 780 781 782 782 782 783 783 783 784 784 784 784 785 785 785 785 785 785 785 784 784 785 785 785
744 744 748 743 732 737 756 768 766 768 778 776 767 757 741 729 718 709 709 708 706 710 711 712 716 715 718 721 720 720 720 721 723 723 725 726 726 728 730 732 734 734 736 737 738 740 741 743 745 747 749 750 752 753 755 756 758 760 761 763 764 765 766 766 767 768 769 770 773 774 776 777 777 778 778 779 779 780 780 780 781 781 781 782 781 781 782 782 782 782 782 782 781 781 781 781 781
740 749 739 729 732 736 748 767 774 780 787 775 763 759 749 743 734 717 712 713 712 715 713 713 716 716 718 718 715 716 716 718 720 720 722 723 723 725 727 729 731 732 733 734 736 738 740 742 743 745 747 748 750 751 753 755 756 758 759 760 761 762 763 764 764 766 767 769 771 772 774 775 775 776 776 777 777 777 777 778 778 778 779 779 778 778 778 778 778 779 779 778 778 778 777 777 777
723 729 722 729 749 753 752 766 775 784 791 776 764 763 754 747 735 716 712 715 714 716 716 715 716 715 715 714 713 714 714 717 718 718 720 721 721 722 724 726 728 729 731 732 734 737 739 741 742 743 744 745 748 750 751 753 754 756 757 757 759 760 761 762 762 764 765 767 768 770 771 773 774 775 775 775 776 776 776 776 776 776 776 776 776 775 775 775 775 775 775 774 774 774 774 773 774
719 722 723 729 741 747 749 756 759 768 782 779 767 762 750 734 721 709 706 710 713 716 715 713 713 711 709 709 710 711 713 715 716 716 718 718 718 719 720 723 724 726 728 730 733 735 736 738 740 741 743 744 746 749 750 751 752 754 755 756 757 758 759 761 762 763 764 765 766 768 769 771 772 774 774 775 775 776 776 775 774 774 773 772 772 772 772 771 771 771 770 770 770 770 770 769 770
731 734 738 735 734 737 743 748 748 751 766 776 774 767 743 717 707 703 698 702 708 708 707 709 708 706 705 705 706 708 710 712 712 713 714 714 715 717 718 720 722 724 727 728 731 733 734 736 738 739 741 743 745 747 748 749 751 752 754 755 756 757 758 760 761 763 764 764 765 766 767 768 770 771 772 773 773 774 774 774 773 771 770 770 769 769 768 768 768 767 766 766 766 766 766 766 766
727 732 734 733 733 739 751 758 753 745 752 762 768 766 738 706 702 701 695 699 702 700 701 704 703 702 702 702 702 705 706 708 709 709 711 712 713 714 716 717 720 722 724 726 728 730 732 734 735 737 739 740 742 744 746 747 749 750 751 753 754 755 756 757 759 760 762 763 764 764 764 765 765 766 766 766 767 767 768 770 770 770 769 768 767 766 766 766 765 764 763 763 763 763 762 763 763